Tracking 17143 objects as of 25-May-2015
HD Live streaming from Space Station

IRIDIUM 33 DEB

Track IRIDIUM 33 DEB now!
10-day predictions
IRIDIUM 33 DEB is classified as:


NORAD ID: 33869
Int'l Code: 1997-051AN
Perigee: 728.5 km
Apogee: 847.5 km
Inclination: 86.4 °
Period: 100.5 minutes
Semi major axis: 7159 km
RCS: 0.08 m2 (small)
Launch date: September 14, 1997
Source: United States (US)

Note: This is SATELLITE DEBRIS
Your satellite tracking list
Your tracking list is empty





NASA's NSSDC Master Catalog

Two Line Element Set (TLE):
1 33869U 97051AN  15144.81403858  .00002514  00000-0  87364-3 0  9996
2 33869 086.3690 259.8568 0083119 323.5295 036.0255 14.33252377325353

Source of the keplerian elements: AFSPC

N2YO: 353